KG4QXL-2 Weather Reports


time (UTC)temp
C
wind
direction
speed
KPH
gust
KPH
rain 1hr
cm
rain 24hr
cm
rain mn
cm
humidity
%
barometer
mb
20260504175537 22 240 0.0 1.6 0.00 0.00 0.00 40 1006.4
20260504174516 22 23 1.6 4.8 0.00 0.00 0.00 39 1006.6
20260504173537 22 249 0.0 1.6 0.00 0.00 0.00 38 1006.8
20260504172517 21 126 1.6 4.8 0.00 0.00 0.00 39 1006.9
20260504171516 21 272 1.6 3.2 0.00 0.00 0.00 38 1007.1
20260504170517 21 265 1.6 4.8 0.00 0.00 0.00 38 1007.2
20260504150537 18 258 0.0 1.6 0.00 0.00 0.00 44 1008.4
20260504140517 15 0.0 0.0 0.00 0.00 0.00 55 1008.6
20260504130517 12 0.0 0.0 0.00 0.00 0.00 64 1009.2
20260504110517 8 0.0 0.0 0.00 0.00 0.00 82 1009.8
20260504100517 8 0.0 0.0 0.00 0.00 0.00 79 1009.7
20260504081517 8 0.0 0.0 0.00 0.00 0.00 86 1010.0
20260504080517 8 0.0 0.0 0.00 0.00 0.00 86 1010.0
20260504050517 7 0.0 0.0 0.00 0.00 0.00 87 1010.2
20260504045517 7 0.0 0.0 0.00 0.00 0.00 87 1010.1
20260504044517 7 0.0 0.0 0.00 0.00 0.00 87 1010.2
20260504043517 7 0.0 0.0 0.00 0.00 0.00 87 1010.1
20260504042517 6 0.0 0.0 0.00 0.00 0.00 88 1010.0
20260504041537 6 0.0 0.0 0.00 0.00 0.00 89 1009.9
20260504040517 6 0.0 0.0 0.00 0.00 0.00 88 1009.8
20260504035516 6 0.0 0.0 0.00 0.00 0.00 87 1010.1
20260504034537 6 0.0 0.0 0.00 0.00 0.00 87 1010.2
20260504033536 7 0.0 0.0 0.00 0.00 0.00 87 1010.1
20260504032516 7 0.0 0.0 0.00 0.00 0.00 86 1010.1
20260504031517 7 0.0 0.0 0.00 0.00 0.00 84 1009.9
20260504030517 7 0.0 0.0 0.00 0.00 0.00 83 1009.9
20260504025558 7 0.0 0.0 0.00 0.00 0.00 81 1009.8
20260504024517 8 0.0 0.0 0.00 0.00 0.00 80 1009.9
20260504023537 8 0.0 0.0 0.00 0.00 0.00 78 1009.8
20260504022517 8 0.0 0.0 0.00 0.00 0.00 78 1009.7
20260504021517 8 0.0 0.0 0.00 0.00 0.00 74 1009.6
20260504020516 8 0.0 0.0 0.00 0.00 0.00 74 1009.6
20260504015516 9 0.0 0.0 0.00 0.00 0.00 71 1009.5
20260504014517 9 0.0 0.0 0.00 0.00 0.00 72 1009.4
20260504013517 9 0.0 0.0 0.00 0.00 0.00 70 1009.5
20260504012517 10 0.0 0.0 0.00 0.00 0.00 69 1009.3
20260504011517 10 0.0 0.0 0.00 0.00 0.00 67 1009.1
20260504010517 10 0.0 0.0 0.00 0.00 0.00 66 1009.0
20260504005517 11 0.0 0.0 0.00 0.00 0.00 64 1009.1
20260504004517 11 0.0 0.0 0.00 0.00 0.00 60 1009.1
20260504003516 11 0.0 0.0 0.00 0.00 0.00 58 1009.1
20260504002517 12 0.0 0.0 0.00 0.00 0.00 56 1008.9
20260504001517 12 0.0 0.0 0.00 0.00 0.00 52 1008.9
20260504000517 13 0.0 0.0 0.00 0.00 0.00 52 1008.8
20260503235516 13 0.0 0.0 0.00 0.00 0.00 46 1008.7
20260503234517 13 0.0 0.0 0.00 0.00 0.00 44 1008.7
20260503233517 14 0.0 0.0 0.00 0.00 0.00 41 1008.6
20260503232557 15 0.0 0.0 0.00 0.00 0.00 41 1008.5
20260503231516 15 0.0 0.0 0.00 0.00 0.00 39 1008.5
20260503230517 15 279 0.0 1.6 0.00 0.00 0.00 37 1008.4
20260503225517 15 0.0 0.0 0.00 0.00 0.00 39 1008.5
20260503224517 15 0.0 0.0 0.00 0.00 0.00 38 1008.5
20260503223517 16 0.0 1.6 0.00 0.00 0.00 36 1008.5
20260503222557 16 259 0.0 1.6 0.00 0.00 0.00 36 1008.5
20260503221524 16 0.0 0.0 0.00 0.00 0.00 35 1008.5
20260503220537 16 281 0.0 1.6 0.00 0.00 0.00 34 1008.7
20260503215516 16 270 0.0 1.6 0.00 0.00 0.00 32 1008.6
20260503214516 16 258 1.6 3.2 0.00 0.00 0.00 33 1008.6
20260503213517 16 280 0.0 1.6 0.00 0.00 0.00 32 1008.7
20260503212517 16 269 1.6 3.2 0.00 0.00 0.00 32 1008.7
20260503211517 16 265 1.6 3.2 0.00 0.00 0.00 33 1008.6
20260503210517 16 257 1.6 3.2 0.00 0.00 0.00 32 1008.6
20260503205536 16 264 1.6 3.2 0.00 0.00 0.00 33 1008.8
20260503204517 16 270 1.6 3.2 0.00 0.00 0.00 34 1008.8
20260503203517 16 276 1.6 4.8 0.00 0.00 0.00 34 1008.7
20260503202517 16 271 1.6 3.2 0.00 0.00 0.00 34 1009.0
20260503201517 16 272 1.6 4.8 0.00 0.00 0.00 33 1009.0
20260503200517 16 270 1.6 3.2 0.00 0.00 0.00 34 1009.3
20260503195517 15 285 0.0 3.2 0.00 0.00 0.00 35 1009.5
20260503194536 15 259 1.6 1.6 0.00 0.00 0.00 36 1009.5
20260503193517 16 252 1.6 3.2 0.00 0.00 0.00 34 1009.7
20260503192517 15 278 0.0 3.2 0.00 0.00 0.00 37 1009.8
20260503191517 15 295 1.6 4.8 0.00 0.00 0.00 36 1010.0
20260503190517 15 275 0.0 3.2 0.00 0.00 0.00 35 1010.1
20260503185517 15 286 1.6 3.2 0.00 0.00 0.00 37 1010.1
20260503184516 15 266 1.6 4.8 0.00 0.00 0.00 36 1010.4
20260503183517 15 258 0.0 1.6 0.00 0.00 0.00 37 1010.5
20260503182517 14 269 0.0 3.2 0.00 0.00 0.00 38 1010.6
20260503181517 14 276 1.6 3.2 0.00 0.00 0.00 37 1010.7
20260503180517 14 274 1.6 4.8 0.00 0.00 0.00 39 1010.6